Location: Newark
(4.9000°N, 36.4333°E)
Time: 16:57:06
(UTC+00:00)

Hubble Space Telescope - Visible Passes

Search period start: 18 August 2019 00:00
Search period end: 28 August 2019 00:00
Orbit: 536 x 540 km, 28.5° (Epoch: 17 August)

Date Brightness Start Highest point End Pass type
(mag) Time Alt. Az. Time Alt. Az. Time Alt. Az.
24 Aug 3.8 17:55:53 10° NNW 17:55:55 10° NNW 17:55:55 10° NNW visible
25 Aug 3.3 17:45:01 10° NW 17:46:01 16° NNW 17:46:01 16° NNW visible
26 Aug 2.7 17:34:13 10° NW 17:36:10 24° NNW 17:36:10 24° NNW visible
27 Aug 1.8 17:23:32 10° NW 17:26:23 40° NNW 17:26:23 40° NNW visible
